TimeEDT,TemperatureF,Dew PointF,Humidity,Sea Level PressureIn,VisibilityMPH,Wind Direction,Wind SpeedMPH,Gust SpeedMPH,PrecipitationIn,Events,Conditions,WindDirDegrees,DateUTC
12:08 AM,53.6,51.8,94,30.26,9.0,Calm,Calm,-,N/A,,Clear,0,2013-10-15 04:08:00
12:28 AM,53.6,51.8,94,30.25,9.0,Calm,Calm,-,N/A,,Clear,0,2013-10-15 04:28:00
12:33 AM,51.8,51.8,100,30.25,3.0,Calm,Calm,-,N/A,,Clear,0,2013-10-15 04:33:00
12:43 AM,51.8,51.8,100,30.25,6.0,Calm,Calm,-,N/A,,Clear,0,2013-10-15 04:43:00
12:48 AM,51.8,51.8,100,30.25,5.0,Calm,Calm,-,N/A,,Clear,0,2013-10-15 04:48:00
12:53 AM,51.8,51.8,100,30.24,6.0,Calm,Calm,-,N/A,,Clear,0,2013-10-15 04:53:00
12:58 AM,52.2,51.8,99,30.25,7.0,Calm,Calm,-,N/A,,Clear,0,2013-10-15 04:58:00
1:03 AM,51.8,51.8,100,30.24,4.0,Calm,Calm,-,N/A,,Clear,0,2013-10-15 05:03:00
1:08 AM,51.8,51.8,100,30.24,2.5,Calm,Calm,-,N/A,,Clear,0,2013-10-15 05:08:00
1:13 AM,51.8,51.8,100,30.24,2.0,Calm,Calm,-,N/A,,Clear,0,2013-10-15 05:13:00
1:18 AM,51.8,51.8,100,30.24,2.5,Calm,Calm,-,N/A,,Clear,0,2013-10-15 05:18:00
1:23 AM,51.8,50.0,94,30.24,2.0,Calm,Calm,-,N/A,,Clear,0,2013-10-15 05:23:00
1:28 AM,50.0,50.0,100,30.24,2.5,Calm,Calm,-,N/A,,Clear,0,2013-10-15 05:28:00
1:33 AM,50.0,50.0,100,30.24,4.0,Calm,Calm,-,N/A,,Clear,0,2013-10-15 05:33:00
1:38 AM,51.8,50.0,94,30.24,5.0,Calm,Calm,-,N/A,,Clear,0,2013-10-15 05:38:00
1:53 AM,51.8,50.0,94,30.24,10.0,Calm,Calm,-,N/A,,Clear,0,2013-10-15 05:53:00
1:58 AM,51.1,50.9,99,30.25,10.0,Calm,Calm,-,N/A,,Clear,0,2013-10-15 05:58:00
2:08 AM,51.8,50.0,94,30.24,9.0,Calm,Calm,-,N/A,,Clear,0,2013-10-15 06:08:00
2:18 AM,50.0,50.0,100,30.23,4.0,Calm,Calm,-,N/A,,Clear,0,2013-10-15 06:18:00
2:43 AM,50.0,50.0,100,30.23,7.0,Calm,Calm,-,N/A,,Clear,0,2013-10-15 06:43:00
2:58 AM,50.4,50.0,99,30.24,7.0,Calm,Calm,-,N/A,,Clear,0,2013-10-15 06:58:00
3:08 AM,50.0,50.0,100,30.23,4.0,NW,1.2,-,N/A,,Partly Cloudy,310,2013-10-15 07:08:00
3:13 AM,50.0,50.0,100,30.23,5.0,NW,1.2,-,N/A,,Partly Cloudy,310,2013-10-15 07:13:00
3:18 AM,50.0,50.0,100,30.23,10.0,NW,1.2,-,N/A,,Partly Cloudy,320,2013-10-15 07:18:00
3:28 AM,50.0,50.0,100,30.22,9.0,Calm,Calm,-,N/A,,Partly Cloudy,0,2013-10-15 07:28:00
3:33 AM,50.0,50.0,100,30.22,9.0,Calm,Calm,-,N/A,,Partly Cloudy,0,2013-10-15 07:33:00
3:58 AM,50.5,50.2,99,30.24,10.0,Calm,Calm,-,N/A,,Partly Cloudy,0,2013-10-15 07:58:00
4:13 AM,50.0,50.0,100,30.23,6.0,Calm,Calm,-,N/A,,Clear,0,2013-10-15 08:13:00
4:18 AM,50.0,50.0,100,30.23,4.0,Calm,Calm,-,N/A,,Clear,0,2013-10-15 08:18:00
4:23 AM,50.0,50.0,100,30.23,5.0,Calm,Calm,-,N/A,,Clear,0,2013-10-15 08:23:00
4:43 AM,50.0,50.0,100,30.22,10.0,Calm,Calm,-,N/A,,Clear,0,2013-10-15 08:43:00
4:58 AM,49.8,49.6,99,30.23,9.0,Calm,Calm,-,N/A,,Clear,0,2013-10-15 08:58:00
5:03 AM,50.0,50.0,100,30.22,8.0,Calm,Calm,-,N/A,,Clear,0,2013-10-15 09:03:00
5:13 AM,50.0,50.0,100,30.23,4.0,Calm,Calm,-,N/A,,Clear,0,2013-10-15 09:13:00
5:18 AM,50.0,50.0,100,30.23,6.0,Calm,Calm,-,N/A,,Clear,0,2013-10-15 09:18:00
5:28 AM,50.0,48.2,94,30.22,4.0,Calm,Calm,-,N/A,,Clear,0,2013-10-15 09:28:00
5:43 AM,50.0,48.2,94,30.22,6.0,Calm,Calm,-,N/A,,Clear,0,2013-10-15 09:43:00
5:48 AM,50.0,48.2,94,30.22,10.0,Calm,Calm,-,N/A,,Clear,0,2013-10-15 09:48:00
5:53 AM,50.0,48.2,94,30.22,4.0,Calm,Calm,-,N/A,,Partly Cloudy,0,2013-10-15 09:53:00
5:58 AM,49.1,48.7,99,30.23,4.0,Calm,Calm,-,N/A,,Scattered Clouds,0,2013-10-15 09:58:00
6:03 AM,48.2,48.2,100,30.22,5.0,Calm,Calm,-,N/A,,Mostly Cloudy,0,2013-10-15 10:03:00
6:08 AM,50.0,50.0,100,30.22,7.0,Calm,Calm,-,N/A,,Mostly Cloudy,0,2013-10-15 10:08:00
6:13 AM,50.0,50.0,100,30.22,9.0,Calm,Calm,-,N/A,,Mostly Cloudy,0,2013-10-15 10:13:00
6:28 AM,51.8,51.8,100,30.21,3.0,WNW,1.2,-,N/A,,Overcast,290,2013-10-15 10:28:00
6:33 AM,51.8,51.8,100,30.22,1.5,WNW,3.5,-,N/A,,Overcast,290,2013-10-15 10:33:00
6:38 AM,51.8,51.8,100,30.22,1.2,WNW,3.5,-,N/A,,Overcast,300,2013-10-15 10:38:00
6:43 AM,51.8,51.8,100,30.22,1.0,WNW,2.3,-,N/A,,Mist,300,2013-10-15 10:43:00
6:48 AM,53.6,53.6,100,30.22,0.8,Calm,Calm,-,N/A,,Mist,0,2013-10-15 10:48:00
6:58 AM,53.1,52.7,99,30.23,0.5,NW,3.5,-,N/A,Fog,Fog,310,2013-10-15 10:58:00
7:03 AM,53.6,53.6,100,30.22,0.5,Calm,Calm,-,N/A,Fog,Fog,0,2013-10-15 11:03:00
7:13 AM,53.6,53.6,100,30.22,0.2,NW,2.3,-,N/A,Fog,Fog,310,2013-10-15 11:13:00
7:18 AM,53.6,53.6,100,30.22,0.2,NW,2.3,-,N/A,Fog,Fog,320,2013-10-15 11:18:00
7:28 AM,53.6,53.6,100,30.22,0.2,NNW,2.3,-,N/A,Fog,Fog,330,2013-10-15 11:28:00
7:48 AM,53.6,53.6,100,30.23,0.2,WNW,2.3,-,N/A,Fog,Fog,300,2013-10-15 11:48:00
7:53 AM,53.6,53.6,100,30.23,0.2,WNW,4.6,-,N/A,Fog,Fog,290,2013-10-15 11:53:00
7:58 AM,53.6,53.6,100,30.24,0.5,WNW,4.6,-,N/A,Fog,Fog,300,2013-10-15 11:58:00
8:08 AM,53.6,53.6,100,30.23,0.5,NW,3.5,-,N/A,Fog,Fog,310,2013-10-15 12:08:00
8:18 AM,53.6,53.6,100,30.24,0.5,NW,5.8,-,N/A,Fog,Fog,310,2013-10-15 12:18:00
8:28 AM,53.6,53.6,100,30.24,0.8,NW,4.6,-,N/A,,Mist,310,2013-10-15 12:28:00
8:33 AM,53.6,53.6,100,30.24,1.0,NW,5.8,-,N/A,,Mist,310,2013-10-15 12:33:00
8:38 AM,53.6,53.6,100,30.24,1.5,NW,5.8,-,N/A,,Overcast,310,2013-10-15 12:38:00
8:43 AM,55.4,55.4,100,30.24,2.5,NW,4.6,-,N/A,,Overcast,320,2013-10-15 12:43:00
8:48 AM,55.4,55.4,100,30.24,3.0,NW,4.6,-,N/A,,Overcast,320,2013-10-15 12:48:00
8:53 AM,55.4,55.4,100,30.24,2.5,NW,3.5,-,N/A,,Overcast,320,2013-10-15 12:53:00
8:58 AM,55.4,55.4,100,30.25,1.8,NNW,3.5,-,N/A,,Overcast,330,2013-10-15 12:58:00
9:03 AM,55.4,55.4,100,30.24,1.5,NW,4.6,-,N/A,,Overcast,320,2013-10-15 13:03:00
9:08 AM,55.4,55.4,100,30.23,1.5,NW,4.6,-,N/A,,Overcast,320,2013-10-15 13:08:00
9:13 AM,55.4,55.4,100,30.23,2.5,NW,4.6,-,N/A,,Overcast,320,2013-10-15 13:13:00
9:18 AM,55.4,55.4,100,30.23,3.0,NW,5.8,-,N/A,,Mostly Cloudy,310,2013-10-15 13:18:00
9:28 AM,57.2,57.2,100,30.23,5.0,WNW,4.6,-,N/A,,Scattered Clouds,300,2013-10-15 13:28:00
9:55 AM,59.9,59.9,100,30.24,10.0,Variable,3.5,-,N/A,,Clear,0,2013-10-15 13:55:00
10:01 AM,57.2,57.2,100,30.23,5.0,WNW,4.6,-,N/A,,Scattered Clouds,300,2013-10-15 14:01:00
10:58 AM,64.9,51.6,62,30.23,10.0,Variable,4.6,-,N/A,,Clear,0,2013-10-15 14:58:00
11:58 AM,67.5,49.6,53,30.21,10.0,Variable,4.6,-,N/A,,Clear,0,2013-10-15 15:58:00
12:54 PM,69.8,48.2,46,30.19,10.0,North,1.2,-,N/A,,Clear,350,2013-10-15 16:54:00
1:58 PM,71.6,45.7,39,30.16,10.0,Variable,2.3,-,0.01,,Clear,0,2013-10-15 17:58:00
2:58 PM,72.0,44.4,37,30.15,10.0,East,3.5,-,N/A,,Clear,100,2013-10-15 18:58:00
3:58 PM,70.7,46.9,43,30.14,10.0,Variable,3.5,-,N/A,,Clear,0,2013-10-15 19:58:00
4:58 PM,70.3,48.0,45,30.13,10.0,North,1.2,-,N/A,,Clear,10,2013-10-15 20:58:00
5:58 PM,66.2,54.3,65,30.13,10.0,Calm,Calm,-,N/A,,Mostly Cloudy,0,2013-10-15 21:58:00
6:58 PM,62.4,59.2,89,30.13,10.0,Calm,Calm,-,N/A,,Overcast,0,2013-10-15 22:58:00
7:58 PM,62.4,60.1,92,30.14,10.0,Calm,Calm,-,N/A,,Overcast,0,2013-10-15 23:58:00
8:58 PM,62.1,58.6,89,30.13,10.0,ESE,2.3,-,N/A,,Overcast,120,2013-10-16 00:58:00
9:23 PM,62.6,59.0,88,30.12,10.0,SE,2.3,-,N/A,,Overcast,130,2013-10-16 01:23:00
9:58 PM,63.3,58.5,84,30.14,10.0,ESE,4.6,-,N/A,,Overcast,120,2013-10-16 01:58:00
10:13 PM,62.6,59.0,88,30.13,10.0,Variable,1.2,-,N/A,,Overcast,0,2013-10-16 02:13:00
10:23 PM,62.6,59.0,88,30.13,10.0,Calm,Calm,-,N/A,,Overcast,0,2013-10-16 02:23:00
10:53 PM,62.6,59.0,88,30.11,10.0,Calm,Calm,-,N/A,,Overcast,0,2013-10-16 02:53:00
10:58 PM,62.6,58.6,87,30.12,10.0,Calm,Calm,-,N/A,,Overcast,0,2013-10-16 02:58:00
11:33 PM,62.6,59.0,88,30.11,10.0,NW,2.3,-,N/A,,Overcast,320,2013-10-16 03:33:00
11:38 PM,62.6,59.0,88,30.11,10.0,WNW,2.3,-,N/A,,Overcast,300,2013-10-16 03:38:00
11:39 PM,62.6,59.0,88,30.11,9.0,WNW,2.3,-,N/A,,Light Drizzle,300,2013-10-16 03:39:00
11:44 PM,62.6,59.0,88,30.11,8.0,NW,2.3,-,N/A,,Light Drizzle,310,2013-10-16 03:44:00
11:51 PM,62.6,59.0,88,30.10,10.0,NNW,1.2,-,N/A,,Overcast,340,2013-10-16 03:51:00
11:58 PM,62.2,59.9,92,30.11,10.0,Calm,Calm,-,0.00,,Overcast,0,2013-10-16 03:58:00